Regional Weather Roundup
Issued by NWS

Home | Current Version | Previous Version | Graphics & Text | Print | Product List | Glossary On
Versions: 1 2 3 4 5 6 7 8 9 10 11 12 13 14 15 16 17 18 19 20 21 22 23 24 25 26 27
000
ASUS45 KTFX 260310
RWRMT
MONTANA REGIONAL WEATHER ROUNDUP
NATIONAL WEATHER SERVICE GREAT FALLS MT
900 PM MDT THU MAY 25 2017

NOTE: "FAIR" INDICATES FEW OR NO CLOUDS BELOW 12000 FEET WITH NO
SIGNIFICANT WEATHER AND/OR OBSTRUCTIONS TO VISIBILITY.

MTZ001>007-043-260400-
WEST OF THE DIVIDE

CITY           SKY/WX    TMP DP  RH WIND       PRES   REMARKS
KALISPELL      MOCLDY    56  43  61 NE5       29.81R
MISSOULA       CLOUDY    59  33  37 NE7       29.80S
BUTTE          CLOUDY    48  26  42 NE9       29.88R
MULLAN PASS    CLOUDY    41  35  79 N6        29.88R
ANACONDA         N/A     48  30  49 N3        29.87R
DEER LODGE       N/A     50  30  46 CALM      29.89R
EUREKA           N/A     57  37  47 NW9       29.82R
HAMILTON         N/A     57  36  44 NW3       29.79S
PLAINS           N/A     59  38  45 W3        29.82R
RONAN            N/A     56  37  48 MISG      29.88R
$$

MTZ008-052>055-260400-
SOUTHWEST MONTANA

CITY           SKY/WX    TMP DP  RH WIND       PRES   REMARKS
BOZEMAN        CLOUDY    46  38  73 SE9       29.88R
DILLON         CLOUDY    48  29  47 NE12      29.84R
W YELLOWSTONE  CLOUDY    43  25  49 NE6       29.89S
ENNIS          MOCLDY    46  28  49 N9        29.91R
THREE FORKS      N/A     51  33  50 CALM      29.89R
TWIN BRIDGES     N/A     50  28  42 N9        29.86R
$$

MTZ009-010-012-014-046-048-049-054-260400-
EAST SLOPES AND CENTRAL MONTANA

CITY           SKY/WX    TMP DP  RH WIND       PRES   REMARKS
CUT BANK       MOCLDY    47  41  80 NW12      29.87R
GREAT FALLS    CLOUDY    48  39  71 NW8       29.87R
MALMSTROM AFB  CLOUDY    50  39  67 W12       29.86R
HELENA         CLEAR     52  35  52 N6        29.86S
CHOTEAU          N/A     45  41  87 N7        29.89R
CONRAD           N/A     49  49 100 W10       29.90R
$$

MTZ011-013-016-021-045-047-050-051-260400-
NORTH CENTRAL MONTANA

CITY           SKY/WX    TMP DP  RH WIND       PRES   REMARKS
HAVRE          LGT RAIN  53  40  61 N13       29.79R
LEWISTOWN      CLOUDY    44  35  70 W7        29.83R
N BAR RANCH      N/A     43  32  65 W7        29.85R
CHINOOK          N/A     54  37  54 NW7       29.77R
FORT BENTON      N/A     54  37  54 CALM        N/A
$$

MTZ017>020-022>027-061-062-260400-
NORTHEAST MONTANA

CITY           SKY/WX    TMP DP  RH WIND       PRES   REMARKS
GLASGOW        CLOUDY    52  38  58 NW28G36   29.68R
JORDAN           N/A     51  36  56 NW12      29.74R
SIDNEY         CLOUDY    55  43  63 W18       29.62R
WOLF POINT     MOCLDY    55  40  56 NW18      29.65R
MALTA          PTCLDY    52  37  58 NW8       29.73R
PLENTYWOOD       N/A     52  45  76 W15       29.57R
POPLAR           N/A     54  41  62 W16       29.63R
SCOBEY           N/A     50  32  50 W18       29.62R
$$

MTZ028>42-056>058-260400-
SOUTHCENTRAL AND SOUTHEAST MONTANA

CITY           SKY/WX    TMP DP  RH WIND       PRES   REMARKS
BAKER          CLOUDY    50  42  74 W14       29.71R
BILLINGS       PTCLDY    53  32  44 N13       29.83R
LIVINGSTON     CLOUDY    46  39  76 W9        29.88R
MILES CITY     CLOUDY    53  37  54 NW20G25   29.75R
BIG TIMBER     CLOUDY    48  32  53 SW13      29.89R
EKALAKA          N/A     49  37  63 W10       29.75R
FORSYTH          N/A     54  37  54 W5        29.77R
LAUREL           N/A     49  30  48 CALM      29.85R
ROUNDUP          N/A     50  31  48 W6        29.76R
$$

REGIONAL REPORTS...DAKOTAS

CITY           SKY/WX    TMP DP  RH WIND       PRES   REMARKS
WILLISTON      CLOUDY    57  44  62 W20       29.57R
MINOT          CLEAR     59  43  55 SW10      29.52R
DICKINSON      CLOUDY    53  42  66 W16       29.62R
BEACH          MOCLDY    50  48  93 W10       29.69R
CROSBY         MOCLDY    55  45  67 W14       29.52R
TIOGA          CLOUDY    55  41  58 W17       29.56R
WATFORD CITY   CLOUDY    55  45  67 W18G25    29.58R
BISMARCK       CLOUDY    61  44  53 W10       29.60R
GRAND FORKS    PTCLDY    63  51  65 SE13      29.51R
FARGO          MOCLDY    64  53  67 S15       29.55R
BUFFALO SD       N/A     52  43  71 W13       29.68R
RAPID CITY     PTCLDY    53  40  61 N21       29.74R
$$

REGIONAL REPORTS...WYOMING/IDAHO/WASHINGTON

CITY           SKY/WX    TMP DP  RH WIND       PRES   REMARKS
GILLETTE       CLOUDY    45  39  79 NW6       29.83R
SHERIDAN       MOCLDY    49  41  74 CALM      29.84R
BUFFALO WY     CLOUDY    49  35  58 NW14G26   29.85R
CODY           CLOUDY    50  29  44 NE3       29.88R
YELLOWSTONE LA   N/A     37  25  61 CALM      29.94R
IDAHO FALLS    MOCLDY    55  32  41 SW6       29.79R
SALMON         CLOUDY    54  36  50 N12       29.77R
BOISE          MOCLDY    60  34  37 NW15G23   29.73R
SPOKANE        PTCLDY    61  37  41 SW7       29.84S
$$

REGIONAL REPORTS...ALBERTA

CITY           SKY/WX    TMP DP  RH WIND       PRES   REMARKS
EDMONTON       PTCLDY    55  37  50 NW5       29.76R
CALGARY        PTCLDY    48  37  66 N12G20    29.86R
LETHBRIDGE     PTCLDY    50  37  62 NW10      29.84R
MEDICINE HAT   MOCLDY    55  37  50 NW12      29.75R
WATERTON GATE    N/A     41  37  87 SW13        N/A
CARDSTON         N/A     46  41  81 NW10G18     N/A
MILK RIVER       N/A     48  41  76 NW9         N/A
ONEFOUR          N/A     46  41  81 NW14G21     N/A
$$

REGIONAL REPORTS...SASKATCHEWAN

CITY           SKY/WX    TMP DP  RH WIND       PRES   REMARKS
SWIFT CURRENT  LGT RAIN  45  43  93 NW21      29.62R
REGINA         MOCLDY    54  43  66 NW18G24   29.46R
SASKATOON      CLOUDY    50  46  87 NW20G26   29.50R
CYPRESS HILLS    N/A     43  37  81 NW7         N/A
VAL MARIE        N/A     48  39  71 NW21G28     N/A
ROCKGLEN         N/A     46  41  81 NW17G30     N/A
$$




USA.gov is the U.S. government's official web portal to all federal, state and local government web resources and services.